Home > Weather > San Francisco > Past weeks

Flag for USA Past Weather in San Francisco, California, USA — Yesterday and Last 2 Weeks

Now
57 °F

Overcast.


Feels Like: 55 °F
Forecast: 55 / 62 °F
Wind: 10 mph from West

Location: San Francisco International Airport

Current Time: May 25, 2016 at 2:22:35 AM

Latest Report: May 25, 2016 at 1:56 AM


Visibility: 10 mi

Pressure: 30.06 "Hg

Humidity: 72%

Dew Point: 48 °F

Location of San FranciscoLocation

Past Weather in San Francisco — Graph

°F

San Francisco Temperature Yesterday

Maximum temperature yesterday: 64 °F (at 12:56 PM)
Minimum temperature yesterday: 56 °F (at 12:56 AM)
Average temperature yesterday: 59 °F

High & Low Weather Summary for the Past Weeks

 TemperatureHumidityPressure
High87 °F (May 17, 1:56 PM)100% (May 10, 12:56 AM)30.12 "Hg (May 10, 12:56 AM)
Low52 °F (May 10, 12:56 AM)50% (May 17, 9:56 AM)29.78 "Hg (May 19, 5:56 PM)
Average59 °F75%29.98 "Hg
* Reported May 10 12:56 AM — May 25 12:56 AM, San Francisco, Weather by CustomWeather, © 2016

Note: Actual official high and low records may vary slightly from our data, if they occured in-between our weather recording intervals... More about our weather records

Advertising

San Francisco Weather History for the Previous 24 Hours

Scroll right to see more
 ConditionsComfort  
Time TempWeatherWind HumidityBarometerVisibility
12:56 AM
Wed, May 25
58 °FOvercast.15 mph70%30.06 "Hg10 mi
11:56 PM
Tue, May 24
58 °FOvercast.10 mph65%30.06 "Hg10 mi
10:56 PM58 °FOvercast.8 mph67%30.06 "Hg10 mi
9:56 PM57 °FOvercast.14 mph74%30.06 "Hg10 mi
8:56 PM58 °FPartly sunny.15 mph75%30.04 "Hg10 mi
7:56 PM58 °FBroken clouds.17 mph75%30.03 "Hg10 mi
6:56 PM59 °FBroken clouds.15 mph75%30.03 "Hg10 mi
5:56 PM59 °FBroken clouds.13 mph75%30.03 "Hg10 mi
4:56 PM63 °FBroken clouds.17 mph70%30.02 "Hg10 mi
3:56 PM64 °FPartly sunny.17 mph68%30.01 "Hg10 mi
2:56 PM64 °FPartly sunny.21 mph68%30.01 "Hg10 mi
1:56 PM63 °FPartly sunny.20 mph68%30.01 "Hg10 mi
12:56 PM64 °FPartly sunny.16 mph68%30.01 "Hg10 mi
11:56 AM62 °FBroken clouds.18 mph70%30.00 "Hg10 mi
10:56 AM59 °FLow clouds.14 mph72%29.99 "Hg10 mi
9:56 AM58 °FLow clouds.16 mph72%29.97 "Hg10 mi
8:56 AM57 °FLow clouds.17 mph74%29.96 "Hg10 mi
7:56 AM56 °FLow clouds.14 mph77%29.94 "Hg10 mi
6:56 AM56 °FLow clouds.15 mph77%29.93 "Hg10 mi
5:56 AM56 °FPassing clouds.16 mph77%29.91 "Hg10 mi
4:56 AM56 °FOvercast.16 mph75%29.90 "Hg10 mi
3:56 AM56 °FOvercast.14 mph75%29.90 "Hg10 mi
2:56 AM56 °FOvercast.14 mph77%29.90 "Hg10 mi
Weather by CustomWeather, © 2016

See weather overviewHow to use our weather pages